TimeEDT,TemperatureF,Dew PointF,Humidity,Sea Level PressureIn,VisibilityMPH,Wind Direction,Wind SpeedMPH,Gust SpeedMPH,PrecipitationIn,Events,Conditions,WindDirDegrees,DateUTC
12:15 AM,59.7,53.6,80,29.92,10.0,NNW,5.8,-,N/A,,Clear,330,2013-07-24 04:15:00
12:35 AM,59.0,53.4,82,29.92,10.0,NNW,4.6,-,N/A,,Clear,330,2013-07-24 04:35:00
12:55 AM,58.5,52.9,82,29.92,10.0,NNW,4.6,-,N/A,,Clear,330,2013-07-24 04:55:00
1:15 AM,57.9,52.7,83,29.93,10.0,NNW,3.5,-,N/A,,Clear,330,2013-07-24 05:15:00
1:35 AM,57.0,52.9,86,29.93,10.0,NNW,4.6,-,N/A,,Clear,330,2013-07-24 05:35:00
1:55 AM,56.7,53.1,88,29.92,10.0,NNW,4.6,-,N/A,,Clear,340,2013-07-24 05:55:00
2:15 AM,56.7,52.9,87,29.93,10.0,NNW,3.5,-,N/A,,Clear,340,2013-07-24 06:15:00
2:35 AM,56.3,52.9,88,29.92,10.0,North,4.6,-,N/A,,Clear,350,2013-07-24 06:35:00
2:55 AM,56.1,52.9,89,29.92,10.0,North,4.6,-,N/A,,Clear,350,2013-07-24 06:55:00
3:15 AM,56.1,53.1,89,29.92,10.0,North,6.9,-,N/A,,Clear,360,2013-07-24 07:15:00
3:35 AM,55.8,52.9,90,29.92,10.0,North,6.9,-,N/A,,Clear,10,2013-07-24 07:35:00
3:55 AM,55.9,52.9,89,29.93,10.0,NNE,8.1,-,N/A,,Clear,20,2013-07-24 07:55:00
4:15 AM,56.3,52.2,86,29.94,10.0,NNE,8.1,-,N/A,,Clear,20,2013-07-24 08:15:00
4:35 AM,55.8,51.8,87,29.94,10.0,NNE,6.9,-,N/A,,Clear,20,2013-07-24 08:35:00
4:55 AM,55.4,50.9,85,29.94,10.0,NNE,8.1,-,N/A,,Clear,30,2013-07-24 08:55:00
5:15 AM,54.9,50.4,85,29.95,10.0,NNE,4.6,-,N/A,,Clear,20,2013-07-24 09:15:00
5:35 AM,54.3,50.4,86,29.96,10.0,NNE,5.8,-,N/A,,Clear,20,2013-07-24 09:35:00
5:55 AM,53.6,50.0,88,29.96,10.0,North,3.5,-,N/A,,Clear,10,2013-07-24 09:55:00
6:15 AM,52.9,49.8,89,29.97,10.0,North,3.5,-,N/A,,Clear,360,2013-07-24 10:15:00
6:35 AM,52.9,49.5,88,29.97,10.0,North,3.5,-,N/A,,Clear,360,2013-07-24 10:35:00
6:55 AM,52.9,49.3,88,29.97,10.0,North,5.8,-,N/A,,Clear,360,2013-07-24 10:55:00
7:15 AM,53.1,49.1,86,29.98,10.0,North,3.5,-,N/A,,Clear,360,2013-07-24 11:15:00
7:35 AM,53.6,49.3,85,29.98,10.0,North,6.9,-,N/A,,Clear,10,2013-07-24 11:35:00
7:55 AM,54.7,49.3,82,29.99,10.0,NNE,8.1,-,N/A,,Clear,20,2013-07-24 11:55:00
8:15 AM,55.9,48.7,77,30.00,10.0,NNE,6.9,-,N/A,,Clear,20,2013-07-24 12:15:00
8:35 AM,57.0,48.7,74,30.00,10.0,NE,4.6,-,N/A,,Clear,40,2013-07-24 12:35:00
8:55 AM,57.9,48.7,71,30.00,10.0,NE,10.4,-,N/A,,Clear,50,2013-07-24 12:55:00
9:15 AM,58.5,48.7,70,29.99,10.0,NE,11.5,17.3,N/A,,Clear,50,2013-07-24 13:15:00
9:35 AM,59.4,49.5,70,30.00,10.0,NE,8.1,-,N/A,,Clear,40,2013-07-24 13:35:00
9:55 AM,60.4,49.3,67,30.01,10.0,NE,10.4,-,N/A,,Clear,40,2013-07-24 13:55:00
10:15 AM,61.3,49.6,65,30.00,10.0,ENE,12.7,18.4,N/A,,Clear,70,2013-07-24 14:15:00
10:35 AM,62.2,50.2,65,30.01,10.0,ENE,10.4,-,N/A,,Clear,60,2013-07-24 14:35:00
10:55 AM,63.1,50.5,63,30.02,10.0,NE,8.1,-,N/A,,Scattered Clouds,50,2013-07-24 14:55:00
11:15 AM,63.7,50.5,62,30.02,10.0,NE,8.1,-,N/A,,Mostly Cloudy,50,2013-07-24 15:15:00
11:35 AM,63.9,50.7,62,30.03,10.0,NE,8.1,-,N/A,,Mostly Cloudy,40,2013-07-24 15:35:00
11:55 AM,64.2,50.9,62,30.03,10.0,NE,9.2,-,N/A,,Mostly Cloudy,40,2013-07-24 15:55:00
12:15 PM,65.5,51.1,60,30.03,10.0,ENE,8.1,-,N/A,,Mostly Cloudy,70,2013-07-24 16:15:00
12:35 PM,66.0,51.4,59,30.03,10.0,NE,6.9,-,N/A,,Overcast,50,2013-07-24 16:35:00
12:55 PM,66.0,51.4,59,30.03,10.0,NE,8.1,-,N/A,,Mostly Cloudy,40,2013-07-24 16:55:00
1:15 PM,66.4,51.3,58,30.02,10.0,NE,9.2,-,N/A,,Scattered Clouds,50,2013-07-24 17:15:00
1:35 PM,67.5,51.8,57,30.01,10.0,ENE,10.4,-,N/A,,Scattered Clouds,70,2013-07-24 17:35:00
1:55 PM,68.0,52.2,57,30.02,10.0,NE,6.9,17.3,N/A,,Mostly Cloudy,50,2013-07-24 17:55:00
2:15 PM,68.4,52.7,57,30.02,10.0,ENE,6.9,-,N/A,,Mostly Cloudy,60,2013-07-24 18:15:00
2:35 PM,68.0,52.3,57,30.01,10.0,NE,8.1,-,N/A,,Mostly Cloudy,40,2013-07-24 18:35:00
2:55 PM,69.1,53.2,57,30.01,10.0,East,8.1,-,N/A,,Scattered Clouds,80,2013-07-24 18:55:00
3:15 PM,69.4,52.5,55,30.01,10.0,NNE,9.2,-,N/A,,Scattered Clouds,30,2013-07-24 19:15:00
3:35 PM,70.0,52.3,53,30.02,10.0,ENE,3.5,-,N/A,,Scattered Clouds,70,2013-07-24 19:35:00
3:55 PM,70.0,52.5,54,30.02,7.0,Calm,Calm,-,N/A,,Mostly Cloudy,0,2013-07-24 19:55:00
4:15 PM,70.2,52.7,54,30.02,10.0,NE,9.2,-,N/A,,Mostly Cloudy,50,2013-07-24 20:15:00
4:35 PM,70.2,52.3,53,30.01,7.0,East,8.1,-,N/A,,Mostly Cloudy,80,2013-07-24 20:35:00
4:55 PM,70.0,52.3,53,30.01,10.0,East,8.1,-,N/A,,Scattered Clouds,80,2013-07-24 20:55:00
5:15 PM,70.7,51.8,51,30.01,10.0,East,11.5,-,N/A,,Mostly Cloudy,80,2013-07-24 21:15:00
5:35 PM,70.3,52.0,52,30.01,10.0,East,3.5,-,N/A,,Scattered Clouds,80,2013-07-24 21:35:00
5:55 PM,70.7,51.3,50,30.00,10.0,ENE,5.8,-,N/A,,Scattered Clouds,70,2013-07-24 21:55:00
6:15 PM,70.7,51.4,50,30.00,10.0,ENE,6.9,-,N/A,,Scattered Clouds,70,2013-07-24 22:15:00
6:35 PM,70.7,51.6,51,30.01,10.0,NE,5.8,-,N/A,,Scattered Clouds,40,2013-07-24 22:35:00
6:55 PM,70.5,51.4,51,30.00,10.0,ENE,5.8,-,N/A,,Scattered Clouds,70,2013-07-24 22:55:00
7:15 PM,69.6,51.6,53,30.01,10.0,ENE,4.6,-,N/A,,Scattered Clouds,70,2013-07-24 23:15:00
7:35 PM,69.8,51.3,52,30.01,10.0,ENE,4.6,-,N/A,,Scattered Clouds,60,2013-07-24 23:35:00
7:55 PM,68.2,51.3,55,30.02,10.0,Calm,Calm,-,N/A,,Scattered Clouds,0,2013-07-24 23:55:00
8:15 PM,67.1,52.7,60,30.02,10.0,ENE,3.5,-,N/A,,Clear,60,2013-07-25 00:15:00
8:35 PM,65.5,54.7,68,30.02,10.0,ENE,3.5,-,N/A,,Clear,60,2013-07-25 00:35:00
8:55 PM,64.0,55.6,74,30.03,10.0,Calm,Calm,-,N/A,,Clear,0,2013-07-25 00:55:00
9:15 PM,62.2,55.6,79,30.02,7.0,Calm,Calm,-,N/A,,Clear,0,2013-07-25 01:15:00
9:35 PM,61.7,54.7,78,30.03,10.0,Calm,Calm,-,N/A,,Clear,0,2013-07-25 01:35:00
9:55 PM,60.1,54.9,83,30.03,10.0,Calm,Calm,-,N/A,,Clear,0,2013-07-25 01:55:00
10:15 PM,58.5,55.4,90,30.03,10.0,Calm,Calm,-,N/A,,Clear,0,2013-07-25 02:15:00
10:35 PM,58.1,55.4,91,30.04,10.0,Calm,Calm,-,N/A,,Clear,0,2013-07-25 02:35:00
10:55 PM,57.6,55.0,91,30.04,10.0,Calm,Calm,-,N/A,,Clear,0,2013-07-25 02:55:00
11:15 PM,57.4,54.9,91,30.04,10.0,Calm,Calm,-,N/A,,Clear,0,2013-07-25 03:15:00
11:35 PM,56.7,54.5,92,30.04,10.0,Calm,Calm,-,N/A,,Clear,0,2013-07-25 03:35:00
11:55 PM,56.1,54.0,92,30.04,10.0,Calm,Calm,-,N/A,,Clear,0,2013-07-25 03:55:00